Cherry Point, NC

3:54 PM EDT on June 26, 2017 (GMT -0400)
Cherry Point Marine Corps Air Station

Weather History for KNKT - January, 2013

Change the Weather History Date:

Monday, January 14, 2013

  Actual Average Record
Temperature  
Mean Temperature 66 °F -  
Max Temperature 77 °F 52 °F 77 °F (2013)
Min Temperature 55 °F 32 °F 19 °F (2011)
Cooling Degree Days 1    
Growing Degree Days 16 (Base 50)    
Moisture  
Dew Point 59 °F    
Average Humidity 84    
Maximum Humidity 97    
Minimum Humidity 56    
Precipitation  
Precipitation 0.00 in - - ()
Sea Level Pressure  
Sea Level Pressure 30.16 in    
Wind  
Wind Speed 5 mph ()    
Max Wind Speed 14 mph    
Max Gust Speed 23 mph    
Visibility 8.2 miles    
Events Fog    
Averages and records for this station are not official NWS values.
T = Trace of Precipitation, MM = Missing Value Source: Averaged Metar Reports

Daily Weather History Graph

Daily Weather History Graph

Search for Another Location

Airport or City:

Trip Planner

Search our weather history database for the weather conditions in past years. The results will help you decide how hot, cold, wet, or windy it might be!

Date:

Astronomy

Jan. 14, 2013 Rise Set
Actual Time 7:14 AM EST 5:18 PM EST
Civil Twilight 6:47 AM EST 5:46 PM EST
Nautical Twilight 6:16 AM EST 6:17 PM EST
Astronomical Twilight 5:46 AM EST 6:47 PM EST
Moon 8:56 AM EST (1/14) 8:51 PM EST (1/14)
Length of Visible Light 10h 58m
Length of Day
10h 03m
Waxing Crescent, 11% of the Moon is Illuminated
Jan 14
Waxing Crescent
Jan 18
First Quarter
Jan 26
Full
Feb 3
Last Quarter
Feb 10
New

Hourly Weather History & Observations

Time (EST) Temp. Dew Point Humidity Pressure Visibility Wind Dir Wind Speed Gust Speed Precip Events Conditions
12:54 AM 63.0 °F 59.0 °F 87% 30.15 in 10.0 mi SSW 3.5 mph - N/A   Mostly Cloudy
1:54 AM 64.0 °F 59.0 °F 84% 30.16 in 10.0 mi SW 6.9 mph - N/A   Partly Cloudy
2:54 AM 63.0 °F 57.9 °F 84% 30.17 in 10.0 mi SSW 6.9 mph - N/A   Clear
3:54 AM 63.0 °F 57.9 °F 84% 30.14 in 10.0 mi SW 5.8 mph - N/A   Clear
4:54 AM 63.0 °F 57.9 °F 84% 30.12 in 10.0 mi SSW 6.9 mph - N/A   Clear
5:54 AM 60.1 °F 57.0 °F 90% 30.14 in 10.0 mi SW 3.5 mph - N/A   Clear
6:54 AM 57.0 °F 55.9 °F 96% 30.17 in 3.0 mi South 4.6 mph - N/A   Partly Cloudy
7:10 AM 57.2 °F 55.4 °F 94% 30.17 in 1.5 mi Calm Calm - N/A   Scattered Clouds
7:14 AM 57.2 °F 55.4 °F 94% 30.18 in 0.5 mi SSW 3.5 mph - N/A Fog Fog
7:24 AM 55.4 °F 53.6 °F 94% 30.18 in 0.8 mi SSW 3.5 mph - N/A   Mostly Cloudy
7:31 AM 57.2 °F 55.4 °F 94% 30.18 in 2.5 mi SSW 3.5 mph - N/A   Mostly Cloudy
7:38 AM 57.2 °F 55.4 °F 94% 30.18 in 4.0 mi SW 4.6 mph - N/A   Scattered Clouds
7:54 AM 57.9 °F 57.0 °F 97% 30.18 in 8.0 mi South 4.6 mph - N/A   Scattered Clouds
8:54 AM 64.0 °F 60.1 °F 87% 30.20 in 10.0 mi SW 4.6 mph - N/A   Clear
9:54 AM 70.0 °F 62.1 °F 76% 30.20 in 10.0 mi SW 6.9 mph - N/A   Scattered Clouds
10:54 AM 72.0 °F 62.1 °F 71% 30.19 in 10.0 mi SW 13.8 mph 23.0 mph N/A   Scattered Clouds
11:54 AM 73.9 °F 62.1 °F 66% 30.16 in 10.0 mi South 10.4 mph 20.7 mph N/A   Scattered Clouds
12:54 PM 75.9 °F 62.1 °F 62% 30.13 in 10.0 mi SSW 9.2 mph - N/A   Mostly Cloudy
1:54 PM 77.0 °F 61.0 °F 58% 30.12 in 10.0 mi SW 10.4 mph 17.3 mph N/A   Mostly Cloudy
2:54 PM 77.0 °F 60.1 °F 56% 30.13 in 10.0 mi SSW 10.4 mph - N/A   Scattered Clouds
3:54 PM 73.0 °F 62.1 °F 68% 30.14 in 10.0 mi South 8.1 mph - N/A   Scattered Clouds
4:54 PM 69.1 °F 61.0 °F 75% 30.16 in 10.0 mi South 6.9 mph - N/A   Scattered Clouds
5:54 PM 64.9 °F 60.1 °F 84% 30.17 in 10.0 mi South 6.9 mph - N/A   Scattered Clouds
6:54 PM 63.0 °F 60.1 °F 90% 30.18 in 10.0 mi South 8.1 mph - N/A   Clear
7:54 PM 62.1 °F 60.1 °F 93% 30.17 in 9.0 mi South 6.9 mph - N/A   Scattered Clouds
8:54 PM 62.1 °F 60.1 °F 93% 30.17 in 9.0 mi SSW 6.9 mph - N/A   Scattered Clouds
9:54 PM 62.1 °F 60.1 °F 93% 30.16 in 9.0 mi SSW 6.9 mph - N/A   Clear
10:54 PM 63.0 °F 60.1 °F 90% 30.16 in 10.0 mi SSW 8.1 mph - N/A   Clear
11:54 PM 64.0 °F 59.0 °F 84% 30.17 in 10.0 mi SSW 6.9 mph - N/A   Clear